Other Public Products
Issued by NWS Charleston, SC

Current Version | Previous Version | Graphics & Text | Print | Product List | Glossary On
Versions: 1 2 3 4 5 6 7 8 9 10 11 12 13 14 15 16 17 18 19 20 21 22 23 24 25 26 27 28 29 30 31 32 33 34 35 36 37 38 39 40 41 42 43 44 45 46 47 48 49 50
000
FPUS82 KCHS 110412
OPUCHS

TEST...KCHS/KSAV Gateway Observations...TEST
National Weather Service Charleston SC
1100 PM EST SUN DEC 10 2017

NOTE: "fair" indicates few or no clouds below 12,000 feet with no
significant weather and/or obstructions to visibility.

SCZ050-WAZ558-NCZ071-TXZ119-213-PAZ071-DCZ001-FLZ074-172-MI076-
NYZ176-178-MAZ016-IL014-TNZ027-NJZ106-GAZ044-MD014-110500-

...Gateway Observations for Charleston International...

CITY           SKY/WX    TMP DP  RH WIND       PRES   REMARKS
Chas Airport   CLEAR     37  32  82 W5        30.25R WCI  33
Seattle        CLEAR     41  28  60 N13       30.31S
Charlotte      CLEAR     34  24  67 S6        30.14S WCI  29
Dallas DFW     CLEAR     52  22  30 SW8       30.27F
Dallas Love    CLEAR     55  24  30 SW5       30.29S
Philladelphia  CLOUDY    36  25  64 S9        30.05S WCI  29
Wash National  CLOUDY    38  28  67 S8        30.06S WCI  32
Baltimore      CLOUDY    34  27  75 CALM      30.05R
Miami          CLEAR     55  40  56 NW6       30.29S
Detroit        CLOUDY    29  23  78 NW9       29.97S WCI  20
Newark         CLOUDY    35  22  58 SW9       30.02S WCI  28
Laguardia      CLOUDY    37  20  50 SW10      30.01S WCI  30
J F K          CLOUDY    36  25  64 W16       30.04R WCI  26
Boston Logan   CLOUDY    33  24  69 SW12      29.96R WCI  24
Ft. Lauderdale PTCLDY    52  41  66 NW9       30.27F
Chicago O`Hare CLOUDY    29  19  66 N7        30.07S WCI  22
Chicago Midway CLOUDY    30  20  66 N7        30.08S WCI  23
Houston Bush   PTCLDY    50  37  61 SW6       30.37F
Houston Hobby  PTCLDY    45  37  73 S6        30.37F
Nashville      CLEAR     41  23  48 S5        30.18R
Atlanta        CLEAR     35  27  72 W7        30.25R WCI  29

$$

GAZ044-118-TXZ119-213-NCZ071-DCZ001-MDZ014-506-PAZ021-071-NJZ106-
NYZ176-178-MAZ106-OHZ011-021-055-MIZ076-KYZ091-ILZ014-INZ047-
MNZ060-ONZ431-110500-

...Gateway Observations for Savannah International...

CITY           SKY/WX    TMP DP  RH WIND       PRES   REMARKS
Savannah Arpt  CLEAR     36  31  82 W5        30.28R WCI  32
Atlanta        CLEAR     35  27  72 W7        30.25R WCI  29
Charlotte      CLEAR     34  24  67 S6        30.14S WCI  29
Dallas DFW     CLEAR     52  22  30 SW8       30.27F
Houston Bush   PTCLDY    50  37  61 SW6       30.37F
Wash National  CLOUDY    38  28  67 S8        30.06S WCI  32
Wash Dulles    CLOUDY    34  25  69 S6        30.04S WCI  29
Baltimore      CLOUDY    34  27  75 CALM      30.05R
Philadelphia   CLOUDY    36  25  64 S9        30.05S WCI  29
Newark         CLOUDY    35  22  58 SW9       30.02S WCI  28
Laguardia      CLOUDY    37  20  50 SW10      30.01S WCI  30
J F K          CLOUDY    36  25  64 W16       30.04R WCI  26
Boston         CLOUDY    33  24  69 SW12      29.96R WCI  24
Pittsburg      CLOUDY    33  18  53 SW9       29.96F WCI  25
Akron          FLURRIES  30  18  60 SW9       29.94F WCI  22
Cleveland      FLURRIES  31  21  66 SW9       29.98S WCI  23
Cincinnati     PTCLDY    33  22  63 W6        30.04R WCI  28
Columbus       CLOUDY    31  23  73 SW7       30.01R WCI  24
Detroit        CLOUDY    29  23  78 NW9       29.97S WCI  20
Chicago O`Hare CLOUDY    29  19  66 N7        30.07S WCI  22
Minneapolis    CLOUDY    24  21  88 CALM      29.99F
Indianapolis   CLEAR     29  21  72 NW9       30.08R WCI  20
Toronto Canada SNOWSHWR  27  21  80 W12       29.86  WCI  16

$$




USA.gov is the U.S. government's official web portal to all federal, state and local government web resources and services.